Weather History for Watford City, ND

Change the Weather History Date:

Friday, January 25, 2013

  Actual Average (KISN) Record (KISN)
Temperature  
Mean Temperature 13 °F 12 °F  
Max Temperature 21 °F 23 °F 51 °F (2006)
Min Temperature 5 °F 1 °F -37 °F (1969)
Degree Days  
Heating Degree Days 52 53  
Month to date heating degree days 1359  
Since 1 July heating degree days 5106  
Cooling Degree Days 0 0  
Month to date cooling degree days 0  
Year to date cooling degree days 0  
Moisture  
Dew Point 9 °F    
Average Humidity 83    
Maximum Humidity 93    
Minimum Humidity 73    
Precipitation  
Precipitation 0.00 in 0.02 in 0.23 in (1974)
Month to date precipitation 0.50  
Year to date precipitation 0.50  
Snow  
Snow 0.00 in 0.30 in 2.80 in (2004)
Month to date snowfall 8.6  
Since 1 July snowfall 27.0  
Snow Depth -    
Sea Level Pressure  
Sea Level Pressure 30.02 in    
Wind  
Wind Speed 9 mph (East)    
Max Wind Speed 16 mph    
Max Gust Speed 21 mph    
Visibility 10 miles    
Events Rain , Snow    
T = Trace of Precipitation, MM = Missing Value Source: NWS Daily Summary

Daily Weather History Graph

Daily Weather History Graph

Search for Another Location

Airport:

Trip Planner

Search our weather history database for the weather conditions in past years. The results will help you decide how hot, cold, wet, or windy it might be!

Date:

Astronomy

Jan. 25, 2013 Rise Set
Actual Time 8:28 AM CST 5:43 PM CST
Civil Twilight 7:54 AM CST 6:17 PM CST
Nautical Twilight 7:16 AM CST 6:54 PM CST
Astronomical Twilight 6:40 AM CST 7:31 PM CST
Moon 4:42 PM CST (1/25) 7:09 AM CST (1/25)
Length of Visible Light 10h 22m
Length of Day
9h 15m
Waxing Gibbous, 98% of the Moon is Illuminated
Jan 25
Waxing Gibbous
Jan 26
Full
Feb 3
Last Quarter
Feb 10
New
Feb 17
First Quarter

Hourly Weather History & Observations

Time (CST) Temp. Windchill Dew Point Humidity Pressure Visibility Wind Dir Wind Speed Gust Speed Precip Events Conditions
12:15 AM 21.2 °F 8.9 °F 17.6 °F 86% 29.99 in 10.0 mi WNW 12.7 mph - N/A   Overcast
12:35 AM 21.2 °F 10.9 °F 17.6 °F 86% 30.00 in 10.0 mi West 9.2 mph - N/A   Overcast
12:55 AM 21.2 °F 8.3 °F 17.6 °F 86% 30.00 in 10.0 mi West 13.8 mph 20.7 mph N/A   Overcast
1:15 AM 21.2 °F 7.3 °F 15.8 °F 80% 29.99 in 10.0 mi WNW 16.1 mph - N/A   Overcast
1:35 AM 19.4 °F 8.6 °F 15.8 °F 86% 30.00 in 10.0 mi WNW 9.2 mph - N/A   Overcast
1:55 AM 17.6 °F 8.2 °F 15.8 °F 93% 30.01 in 10.0 mi NNW 6.9 mph - N/A   Overcast
2:15 AM 17.6 °F 9.3 °F 14.0 °F 86% 30.01 in 10.0 mi WNW 5.8 mph - N/A   Overcast
2:35 AM 17.6 °F 10.7 °F 15.8 °F 93% 30.01 in 10.0 mi West 4.6 mph - N/A   Overcast
2:55 AM 19.4 °F 7.2 °F 15.8 °F 86% 30.02 in 10.0 mi West 11.5 mph - N/A   Overcast
3:15 AM 17.6 °F 7.3 °F 15.8 °F 93% 30.03 in 10.0 mi WNW 8.1 mph - N/A   Overcast
3:35 AM 17.6 °F 7.3 °F 14.0 °F 86% 30.03 in 10.0 mi WNW 8.1 mph - N/A   Overcast
3:55 AM 17.6 °F 8.2 °F 14.0 °F 86% 30.02 in 10.0 mi NW 6.9 mph - N/A   Overcast
4:15 AM 17.6 °F 7.3 °F 14.0 °F 86% 30.02 in 10.0 mi NW 8.1 mph - N/A   Overcast
4:35 AM 15.8 °F 4.2 °F 12.2 °F 86% 30.02 in 10.0 mi North 9.2 mph - N/A   Mostly Cloudy
4:55 AM 14.0 °F 0.5 °F 10.4 °F 86% 30.02 in 10.0 mi North 11.5 mph - N/A   Mostly Cloudy
5:15 AM 12.2 °F -1.0 °F 8.6 °F 85% 30.03 in 10.0 mi North 10.4 mph - N/A   Overcast
5:35 AM 12.2 °F 0.7 °F 8.6 °F 85% 30.04 in 10.0 mi NNE 8.1 mph - N/A   Overcast
5:55 AM 12.2 °F -0.2 °F 6.8 °F 79% 30.04 in 10.0 mi North 9.2 mph - N/A   Overcast
6:15 AM 10.4 °F -3.3 °F 6.8 °F 85% 30.05 in 10.0 mi North 10.4 mph - N/A   Overcast
6:35 AM 10.4 °F -3.3 °F 6.8 °F 85% 30.05 in 10.0 mi North 10.4 mph - N/A   Overcast
6:55 AM 10.4 °F -4.1 °F 6.8 °F 85% 30.06 in 10.0 mi North 11.5 mph - N/A   Overcast
7:35 AM 8.6 °F -4.7 °F 6.8 °F 92% 30.07 in 10.0 mi North 9.2 mph - N/A   Overcast
7:55 AM 6.8 °F -5.9 °F 5.0 °F 92% 30.08 in 10.0 mi NNE 8.1 mph - N/A Snow Light Snow
8:15 AM 6.8 °F -3.5 °F 5.0 °F 92% 30.08 in 8.0 mi NNE 5.8 mph - N/A Snow Light Snow
8:35 AM 6.8 °F -3.5 °F 3.2 °F 85% 30.09 in 10.0 mi NNE 5.8 mph - N/A   Overcast
8:55 AM 6.8 °F -3.5 °F 1.4 °F 79% 30.09 in 10.0 mi NE 5.8 mph - N/A   Overcast
9:15 AM 6.8 °F -3.5 °F 1.4 °F 79% 30.10 in 8.0 mi NE 5.8 mph - N/A Snow Light Snow
9:35 AM 5.0 °F -6.9 °F 1.4 °F 85% 30.09 in 7.0 mi ENE 6.9 mph - N/A Snow Light Snow
9:55 AM 5.0 °F -8.1 °F 1.4 °F 85% 30.10 in 5.0 mi NE 8.1 mph - N/A Snow Light Snow
10:15 AM 6.8 °F -4.8 °F 1.4 °F 79% 30.11 in 6.0 mi East 6.9 mph - N/A Rain Light Freezing Rain
10:35 AM 6.8 °F -3.5 °F 1.4 °F 79% 30.11 in 9.0 mi NE 5.8 mph - N/A   Overcast
10:55 AM 6.8 °F -3.5 °F 3.2 °F 85% 30.12 in 10.0 mi NE 5.8 mph - N/A   Overcast
11:15 AM 6.8 °F -2.0 °F 1.4 °F 79% 30.12 in 10.0 mi ENE 4.6 mph - N/A   Overcast
11:35 AM 6.8 °F -3.5 °F 1.4 °F 79% 30.12 in 10.0 mi East 5.8 mph - N/A   Overcast
11:55 AM 6.8 °F -2.0 °F 1.4 °F 79% 30.12 in 10.0 mi East 4.6 mph - N/A   Overcast
12:15 PM 6.8 °F -0.1 °F 1.4 °F 79% 30.10 in 10.0 mi ESE 3.5 mph - N/A   Partly Cloudy
12:35 PM 6.8 °F -3.5 °F 1.4 °F 79% 30.10 in 10.0 mi ESE 5.8 mph - N/A   Clear
12:55 PM 8.6 °F 2.0 °F 3.2 °F 79% 30.09 in 10.0 mi SE 3.5 mph - N/A   Clear
1:15 PM 10.4 °F 2.2 °F 5.0 °F 79% 30.08 in 10.0 mi East 4.6 mph - N/A   Clear
1:35 PM 12.2 °F 2.9 °F 6.8 °F 79% 30.07 in 10.0 mi ESE 5.8 mph - N/A   Clear
1:55 PM 12.2 °F 2.9 °F 6.8 °F 79% 30.06 in 10.0 mi ESE 5.8 mph - N/A   Clear
2:15 PM 14.0 °F 6.5 °F 8.6 °F 79% 30.05 in 10.0 mi ESE 4.6 mph - N/A   Clear
2:35 PM 15.8 °F 6.1 °F 8.6 °F 73% 30.04 in 10.0 mi ESE 6.9 mph - N/A   Clear
2:55 PM 15.8 °F 5.1 °F 10.4 °F 79% 30.03 in 10.0 mi ESE 8.1 mph - N/A   Clear
3:15 PM 17.6 °F 7.3 °F 10.4 °F 73% 30.02 in 10.0 mi ESE 8.1 mph - N/A   Clear
3:35 PM 17.6 °F 6.4 °F 10.4 °F 73% 30.02 in 10.0 mi ESE 9.2 mph - N/A   Clear
3:55 PM 17.6 °F 6.4 °F 10.4 °F 73% 30.01 in 10.0 mi ESE 9.2 mph - N/A   Clear
4:15 PM 17.6 °F 8.2 °F 10.4 °F 73% 30.01 in 10.0 mi SE 6.9 mph - N/A   Clear
4:35 PM 17.6 °F 8.2 °F 10.4 °F 73% 30.01 in 10.0 mi ESE 6.9 mph - N/A   Clear
4:55 PM 17.6 °F 5.7 °F 10.4 °F 73% 30.00 in 10.0 mi ESE 10.4 mph - N/A   Clear
5:15 PM 15.8 °F 5.1 °F 10.4 °F 79% 30.00 in 10.0 mi SE 8.1 mph - N/A   Clear
5:35 PM 14.0 °F 3.9 °F 8.6 °F 79% 30.00 in 10.0 mi SE 6.9 mph - N/A   Clear
5:55 PM 14.0 °F 3.9 °F 8.6 °F 79% 30.00 in 10.0 mi SE 6.9 mph - N/A   Clear
6:15 PM 12.2 °F 1.7 °F 8.6 °F 85% 29.99 in 10.0 mi ESE 6.9 mph - N/A   Clear
6:35 PM 12.2 °F 1.7 °F 6.8 °F 79% 29.98 in 10.0 mi ESE 6.9 mph - N/A   Partly Cloudy
6:55 PM 10.4 °F -0.4 °F 6.8 °F 85% 29.98 in 10.0 mi ESE 6.9 mph - N/A   Scattered Clouds
7:15 PM 12.2 °F 0.7 °F 8.6 °F 85% 29.97 in 10.0 mi ESE 8.1 mph - N/A   Clear
7:35 PM 12.2 °F 1.7 °F 8.6 °F 85% 29.96 in 10.0 mi SE 6.9 mph - N/A   Clear
7:55 PM 12.2 °F 2.9 °F 8.6 °F 85% 29.95 in 10.0 mi ESE 5.8 mph - N/A   Clear
8:15 PM 12.2 °F 0.7 °F 8.6 °F 85% 29.95 in 10.0 mi ESE 8.1 mph - N/A   Clear
8:35 PM 12.2 °F -1.0 °F 8.6 °F 85% 29.94 in 10.0 mi ESE 10.4 mph - N/A   Clear
8:55 PM 14.0 °F 1.2 °F 8.6 °F 79% 29.94 in 10.0 mi ESE 10.4 mph - N/A   Clear
9:15 PM 14.0 °F 1.2 °F 8.6 °F 79% 29.93 in 10.0 mi ESE 10.4 mph - N/A   Clear
9:35 PM 14.0 °F 1.2 °F 8.6 °F 79% 29.92 in 10.0 mi ESE 10.4 mph - N/A   Clear
9:55 PM 12.2 °F -1.8 °F 8.6 °F 85% 29.92 in 10.0 mi ESE 11.5 mph - N/A   Clear
10:15 PM 12.2 °F -2.5 °F 8.6 °F 85% 29.91 in 10.0 mi ESE 12.7 mph - N/A   Clear
10:35 PM 14.0 °F -0.2 °F 10.4 °F 86% 29.91 in 10.0 mi ESE 12.7 mph - N/A   Clear
10:55 PM 14.0 °F 0.5 °F 10.4 °F 86% 29.90 in 10.0 mi ESE 11.5 mph - N/A   Clear
11:15 PM 14.0 °F 0.5 °F 10.4 °F 86% 29.90 in 10.0 mi ESE 11.5 mph - N/A   Clear
11:35 PM 14.0 °F 0.5 °F 8.6 °F 79% 29.90 in 10.0 mi ESE 11.5 mph - N/A   Clear
11:55 PM 14.0 °F 0.5 °F 10.4 °F 86% 29.90 in 10.0 mi ESE 11.5 mph - N/A   Clear